Regional Weather Roundup
Issued by NWS Wakefield, VA

Home | Current Version | Previous Version | Graphics & Text | Print | Product List | Glossary On
Versions: 1 2 3 4 5 6 7 8 9 10 11 12 13 14 15 16 17 18 19 20 21 22 23 24 25 26 27 28 29 30 31 32 33 34 35 36 37 38 39 40 41 42 43 44 45 46 47 48 49 50
000
ASUS41 KAKQ 201010
RWRAKQ

REGIONAL WEATHER ROUNDUP
NATIONAL WEATHER SERVICE WAKEFIELD VA
600 AM EDT MON OCT 20 2014

Note: "fair" indicates few or no clouds below 12,000 feet with no
significant weather and/or obstructions to visibility. * = Denotes
station may not report precipitation (e.g., rain,snow,etc.),
thunder or fog.

VAZ042-051-052>054-056-201100-
NORTHERN VIRGINIA

CITY           SKY/WX    TMP DP  RH WIND       PRES   REMARKS
WASH NATIONAL  MOCLDY    47  39  74 CALM      30.12S
DULLES         MOCLDY    36  35  96 CALM      30.11S
FORT BELVOIR   PTCLDY    37  36  95 CALM      30.12S
QUANTICO       PTCLDY    41  38  89 NW8       30.13S
FREDERICKSBRG* CLEAR     37  37 100 CALM      30.13R
STAFFORD*      CLEAR     32  32 100 CALM      30.17R
WARRENTON      PTCLDY    34  34 100 CALM      30.11R
CULPEPER*      PTCLDY    36  36 100 CALM      30.12S FOG
MANASSAS*      PTCLDY    36  36 100 CALM      30.12S
LEESBURG*      PTCLDY    37  37 100 CALM      30.11S
WINCHESTER     MOCLDY    37  34  87 CALM      30.08S
FRONT ROYAL*   MOSUNNY   36  36 100 S3        30.08S
LURAY*         MOSUNNY   37  37 100 CALM      30.09S
$$

VAZ048-049-060>072-079>083-201100-
CENTRAL AND SOUTH CENTRAL VIRGINIA...AND NORTH CENTRAL NORTH CAROLINA

CITY           SKY/WX    TMP DP  RH WIND       PRES   REMARKS
RICHMOND       PTCLDY    41  36  82 CALM      30.13R
CHESTERFIELD*  SUNNY     37  27  65 CALM      30.13F
PETERSBURG*    CLEAR     34  34  99 CALM      30.14R
HANOVER        CLEAR     38  37  97 CALM      30.14R
TAPPAHANNOCK*  CLEAR     35  32  90 CALM      30.14R
CHARLOTTSVILLE PTCLDY    37  34  89 CALM      30.10R
ORANGE*        PTCLDY    36  36 100 CALM      30.12S
LOUISA*        PTCLDY    37  36  93 S3        30.10R
FARMVILLE*     PTCLDY    36  36 100 CALM      30.09S
CREWE*         SUNNY     37  35  93 CALM      30.11S
FORT PICKETT*  SUNNY     38  37  97 CALM      30.12R
LUNENBURG*     SUNNY     40  39  97 CALM      30.11S
SOUTH HILL*    CLEAR     39  39 100 CALM      30.18R
LAWRENCEVILLE* SUNNY     38  38  99 CALM      30.13S
ROANOKE RAPIDS SUNNY     37  37 100 CALM      30.14R
RALEIGH        PTCLDY    42  40  92 CALM      30.15R
$$

VAZ088>098-201100-
SOUTHEAST VIRGINIA

CITY           SKY/WX    TMP DP  RH WIND       PRES   REMARKS
NORFOLK        CLEAR     44  40  85 SW5       30.14R
VIRGINIA BEACH CLEAR     42  37  82 SW3       30.13S
NORFOLK NAVAL  PTCLDY    49  44  83 S5        30.15R
WEST POINT*    CLOUDY    41  39  93 CALM      30.15R VSB<1/4
NEWPORT NEWS   CLEAR     41  38  89 CALM      30.14R
LANGLEY AFB    CLEAR     41  41 100 SW5       30.14R
FORT EUSTIS    CLEAR     41 N/A N/A E1        30.12R
WILLIAMSBURG*  CLEAR     43  43 100 CALM      30.15R
HR EXEC AP*    SUNNY     34  30  86 CALM      30.16R
FRANKLIN*      CLEAR     36  36 100 CALM      30.15R
WAKEFIELD      CLEAR     38  35  89 CALM      30.14R
$$

VAZ020-022-025-037-045-201100-
WEST CENTRAL AND SOUTHWEST VIRGINIA

CITY           SKY/WX    TMP DP  RH WIND       PRES   REMARKS
STAUNTON*      PTCLDY    33  31  93 CALM      30.10F
HOT SPRINGS VA PTCLDY    44  32  64 W15       30.05R
LYNCHBURG      PTCLDY    35  35 100 CALM      30.11R
DANVILLE       MOCLDY    39  36  89 CALM      30.13R
SOUTH BOSTON*  NOT AVBL
MARTINSVILLE   PTCLDY    34  34 100 CALM      30.14S
ROANOKE        CLEAR     41  37  86 NE3       30.12R
BLACKSBURG     PTCLDY    36  36 100 CALM      30.12S
DUBLIN*        PTCLDY    36  36 100 CALM      30.11S
MARION*        MOCLDY    37  35  94 CALM      30.12S
HILLSVILLE*    MOCLDY    42  36  78 S8        30.10S
RICHLANDS*     CLOUDY    47  38  71 CALM      30.07S
WISE*          MOCLDY    45  36  70 CALM      30.08S
ABINGDON*      CLOUDY    41  39  92 E5        30.09S
$$

MDZ021>025-VAZ099-100-201100-
SOUTHERN MARYLAND AND THE DELMARVA PENINSULA

CITY           SKY/WX    TMP DP  RH WIND       PRES   REMARKS
PATUXENT RIVER PTCLDY    38  36  92 CALM      30.12R
BAY BRIDGE APT   N/A     43  41  93 CALM      30.12R
LEONARDTOWN    CLEAR     36  34  93 CALM      30.13S
DOVER          CLEAR     40  37  89 S1        30.10R
GEORGETOWN     CLEAR     36  32  85 CALM      30.14R
EASTON         CLEAR     39  39 100 CALM      30.16S
CAMBRIDGE      CLEAR     37  34  87 CALM      30.11S
SALISBURY      CLEAR     37  33  85 CALM      30.13R
OCEAN CITY     CLEAR     34  32  92 CALM      30.13R
WALLOPS ISLAND CLEAR     39  36  89 CALM      30.14R
ACCOMACK*      CLEAR     37  36  93 CALM      30.14R
$$

NCZ012>017-030>032-201100-
EASTERN NORTH CAROLINA

CITY           SKY/WX    TMP DP  RH WIND       PRES   REMARKS
ELIZABETH CITY CLEAR     43  39  86 CALM      30.15R
AHOSKIE*       CLEAR     36  35  96 CALM      30.15R
EDENTON*       CLEAR     40  38  94 CALM      30.15R
CURRITUCK*     CLEAR     42  39  89 CALM      30.15S
KILL DEVIL HLS CLEAR     55  43  64 CALM      30.13S
MANTEO         CLEAR     46  42  87 CALM      30.14S
CAPE HATTERAS  CLEAR     48  44  86 CALM      30.15R
TARBORO*       FOG       40  39  97 CALM      30.16R VSB 1/4
GOLDSBORO      MOCLDY    43  42  97 CALM      30.14R
WASHINGTON     CLOUDY    40  40  97 CALM      30.16R
GREENVILLE     MOCLDY    41  41 100 CALM      30.16R FOG
NEW BERN       FOG       44  41  89 CALM      30.18R VSB 1/4
WILMINGTON     CLEAR     45  43  93 CALM      30.15R
$$

VAZ048-201100-
ELSEWHERE

CITY           SKY/WX    TMP DP  RH WIND       PRES   REMARKS
HARRISBURG PA  PTCLDY    37  34  89 NE5       30.08S
BALTIMORE      PTCLDY    36  34  92 CALM      30.10S
ANNAPOLIS      PTCLDY    42  37  82 CALM      30.12R
ANDREWS AFB    PTCLDY    38  36  94 CALM      30.11S
WILMINGTON DE  CLEAR     37  35  92 CALM      30.13R
PHILADELPHIA   PTCLDY    42  32  67 S5        30.13R
WILDWOOD NJ*   CLEAR     36  28  75 CALM      30.14R
ATLANTIC CITY  CLEAR     32  29  88 CALM      30.13S
HENDERSON NC   PTCLDY    42  40  94 SW5       30.13R
GREENSBORO     PTCLDY    43  40  89 S5        30.12S
ROCKY MOUNT    MOCLDY    39  38  96 CALM      30.15R
FAYETTEVILLE   CLEAR     44  41  89 SW3       30.15R
CHARLOTTE      PTCLDY    48  41  76 SE3       30.13S
$$

VAZ100-201100-
MARINE

STATION/POSITION TIME  TEMP    WIND        PRES    WAVE   SWELL
                       AIR SEA DIR/SP/G            HT/PER HT/PER
                 (UTC) (F)     (DEG/KT/KT) (MB)    (FT/S) (FT/S)
44066 TX TWR #4  1000   51 66  310/ 16/ 19 1018.5R   5/ 6   2/11
CAPE MAY NJ      1000   45 65  100/  3/  4 1019.8R
LEWES DE         1000   44 61  210/  5/  5 1019.9F
15NM E FENWICK I 1000   56 65  300/  6/  8 1019.8R   2/13   2/13
OCEAN-CITY-INLET 1000   50 64  270/  1/  2 1019.8R
WACHAPREAGUE VA  1000   42 61     CALM     1020.2F
THOMAS POINT MD  1000   53 63  250/  3/  3 1020.9R
GOOSES REEF MD   1000   57     130/  4/  6 1020.3R
COVE POINT MD    1000   52     220/  2/  3 1019.9R
SOLOMONS ISLAND  1000      65                N/A
BISHOPS HEAD MD  1000   53 57   80/  4/  6 1019.7R
PINEY POINT MD   1000           CALM  /  1   N/A
POTOMAC MD       1000   57     280/  4/  6 1019.4R
CAMBRIDGE MD     1000   45 63  180/  2/  3 1019.6F
LEWISETTA VA     1000   48 62  260/  3/  3 1019.8R
RAPPAHANNOCK LGT 1000           90/  7/  8 1020.7R
STINGRAY PT      1000   58      CALM  /  2 1020.5S
YORK RVR RNG VA  1000   57      CALM  /  1 1019.8R
YORKTOWN VA      1000   49 67  240/  2/  3 1020.0R
JAMESTOWN VA     1000   51     210/  2/  4   N/A
DOMINION TERM VA 1000   56     210/  7/  8 1020.2S
KIPTOPEKE VA     1000      69  110/  4/  4   N/A
CHES BAY BRIDGE  1000   56 69  200/  7/  7 1019.7R
CHESAPEAKE LGHT  0900   59     360/  3/  4 1020.9R
WILLOUBY STN VA  1000   56     210/  6/  7 1018.9R
S CRANEY ISL VA  1000          210/  3/  4 1020.2R
CAPE HENRY BUOY  1000      69                N/A     3/13   2/13
1ST LANDING BUOY 1000   57     200/  6/  8 1019.8S
CAPE CHARLES BUO 1000      69                N/A     2/13   2/13
64NM E OF VA BCH 1000   60 69  360/  4/  8 1020.1R   3/13   3/13
DUCK PIER NC     1000   58 68  320/  5/  6 1019.6S
44100 DUCK FRF   1000      71                N/A     4/13   2/13
44056 DUCK FRF   1000                        N/A     4/ 5   2/13
OREGON INLET NC  1000   56 67  320/  2/  3 1020.5S
HATTERAS NC      1000   60 66   40/  3/  4 1021.0R
DIAMOND SHLS NC  1000   62      10/  4/  8 1020.7R   4/12   3/12
CAPE LOOKOUT NC  0900   60      10/  9/  9 1020.5R
$$



USA.gov is the U.S. government's official web portal to all federal, state and local government web resources and services.